| time (UTC) | temp F | wind direction | speed MPH | gust MPH | rain 1hr in | rain 24hr in | rain mn in | humidity % | barometer mb |
| 20260905062605 | 73 | 304 | 0.0 | 0.0 | 0.00 | 0.00 | 0.00 | 78 | 1009.7 |
| 20260905062105 | 73 | 304 | 0.0 | 0.0 | 0.00 | 0.00 | 0.00 | 78 | 1009.8 |
| 20260905061604 | 73 | 304 | 0.0 | 0.0 | 0.00 | 0.00 | 0.00 | 78 | 1009.8 |
| 20260905060604 | 74 | 304 | 0.0 | 1.0 | 0.00 | 0.00 | 0.00 | 78 | 1009.8 |
| 20260905060104 | 74 | 302 | 0.0 | 0.0 | 0.00 | 0.00 | 0.00 | 78 | 1009.8 |
| 20260905055604 | 74 | 302 | 0.0 | 0.0 | 0.00 | 0.00 | 0.00 | 78 | 1009.8 |
| 20260905055104 | 74 | 302 | 0.0 | 0.0 | 0.00 | 0.00 | 0.00 | 77 | 1009.8 |
| 20260905054604 | 74 | 302 | 0.0 | 1.0 | 0.00 | 0.00 | 0.00 | 76 | 1009.8 |
| 20260905053604 | 75 | 302 | 0.0 | 0.0 | 0.00 | 0.00 | 0.00 | 75 | 1009.9 |
| 20260905053104 | 75 | 302 | 0.0 | 0.0 | 0.00 | 0.00 | 0.00 | 73 | 1009.8 |
| 20260905052604 | 75 | 302 | 0.0 | 0.0 | 0.00 | 0.00 | 0.00 | 72 | 1009.8 |
| 20260905052104 | 76 | 302 | 0.0 | 0.0 | 0.00 | 0.00 | 0.00 | 71 | 1009.7 |
| 20260905051604 | 76 | 302 | 0.0 | 1.0 | 0.00 | 0.00 | 0.00 | 70 | 1009.9 |
| 20260905051104 | 76 | 302 | 0.0 | 1.0 | 0.00 | 0.00 | 0.00 | 68 | 1010.1 |
| 20260905050104 | 77 | 351 | 1.0 | 2.0 | 0.00 | 0.00 | 0.00 | 67 | 1010.4 |
| 20260905045604 | 77 | 4 | 0.0 | 1.0 | 0.00 | 0.01 | 0.00 | 69 | 1010.3 |
| 20260905045104 | 77 | 4 | 0.0 | 1.0 | 0.00 | 0.11 | 0.00 | 69 | 1010.1 |
| 20260905044604 | 77 | 240 | 0.0 | 1.0 | 0.00 | 0.12 | 0.00 | 70 | 1010.2 |
| 20260905044105 | 77 | 239 | 1.0 | 2.0 | 0.00 | 0.12 | 0.00 | 70 | 1010.3 |
| 20260905043104 | 77 | 345 | 0.0 | 0.0 | 0.00 | 0.16 | 0.00 | 71 | 1010.1 |
| 20260905042604 | 77 | 345 | 0.0 | 0.0 | 0.00 | 0.19 | 0.00 | 72 | 1010.0 |
| 20260905042105 | 77 | 345 | 0.0 | 2.0 | 0.00 | 0.19 | 0.00 | 72 | 1010.1 |
| 20260905041104 | 78 | 359 | 0.0 | 0.0 | 0.00 | 0.19 | 0.00 | 72 | 1010.1 |
| 20260905040604 | 77 | 359 | 0.0 | 0.0 | 0.00 | 0.19 | 0.00 | 72 | 1010.1 |
| 20260905040104 | 77 | 359 | 0.0 | 1.0 | 0.00 | 0.19 | 0.00 | 72 | 1010.1 |
| 20260905035604 | 77 | 359 | 0.0 | 0.0 | 0.00 | 0.19 | 0.19 | 73 | 1010.1 |
| 20260905035104 | 78 | 24 | 0.0 | 0.0 | 0.00 | 0.19 | 0.19 | 73 | 1010.1 |
| 20260905034604 | 78 | 24 | 0.0 | 0.0 | 0.00 | 0.19 | 0.19 | 74 | 1010.0 |
| 20260905033604 | 78 | 24 | 0.0 | 0.0 | 0.00 | 0.19 | 0.19 | 74 | 1010.1 |
| 20260905033104 | 78 | 24 | 0.0 | 0.0 | 0.00 | 0.19 | 0.19 | 74 | 1010.1 |
| 20260905032604 | 78 | 24 | 0.0 | 0.0 | 0.00 | 0.19 | 0.19 | 74 | 1010.2 |
| 20260905032104 | 78 | 24 | 0.0 | 0.0 | 0.00 | 0.19 | 0.19 | 74 | 1010.1 |
| 20260905031604 | 78 | 24 | 0.0 | 0.0 | 0.00 | 0.19 | 0.19 | 74 | 1010.0 |
| 20260905030604 | 78 | 24 | 0.0 | 0.0 | 0.00 | 0.19 | 0.19 | 74 | 1010.0 |
| 20260905025604 | 78 | 24 | 0.0 | 0.0 | 0.00 | 0.19 | 0.19 | 74 | 1010.1 |
| 20260905025105 | 78 | 24 | 0.0 | 0.0 | 0.00 | 0.19 | 0.19 | 74 | 1010.1 |
| 20260905024604 | 78 | 24 | 0.0 | 0.0 | 0.00 | 0.19 | 0.19 | 74 | 1010.0 |
| 20260905024105 | 78 | 24 | 0.0 | 0.0 | 0.00 | 0.19 | 0.19 | 73 | 1010.0 |
| 20260905023604 | 78 | 24 | 0.0 | 0.0 | 0.00 | 0.19 | 0.19 | 74 | 1010.0 |
| 20260905023105 | 78 | 24 | 0.0 | 0.0 | 0.00 | 0.19 | 0.19 | 74 | 1010.1 |
| 20260905022606 | 78 | 24 | 0.0 | 0.0 | 0.00 | 0.19 | 0.19 | 73 | 1010.1 |
| 20260905022105 | 78 | 24 | 0.0 | 0.0 | 0.00 | 0.19 | 0.19 | 73 | 1010.1 |
| 20260905021604 | 78 | 24 | 0.0 | 0.0 | 0.00 | 0.19 | 0.19 | 73 | 1010.2 |
| 20260905021105 | 78 | 24 | 0.0 | 0.0 | 0.00 | 0.19 | 0.19 | 73 | 1010.1 |
| 20260905020604 | 78 | 24 | 0.0 | 0.0 | 0.00 | 0.19 | 0.19 | 72 | 1010.0 |
| 20260905020105 | 79 | 24 | 0.0 | 0.0 | 0.00 | 0.19 | 0.19 | 72 | 1010.0 |
| 20260905015604 | 79 | 24 | 0.0 | 0.0 | 0.00 | 0.19 | 0.19 | 72 | 1009.9 |
| 20260905014605 | 79 | 24 | 0.0 | 0.0 | 0.00 | 0.19 | 0.19 | 72 | 1009.9 |
| 20260905013605 | 79 | 24 | 0.0 | 0.0 | 0.00 | 0.19 | 0.19 | 71 | 1010.0 |
| 20260905013104 | 79 | 24 | 0.0 | 0.0 | 0.00 | 0.19 | 0.19 | 71 | 1010.0 |
| 20260905012604 | 79 | 24 | 0.0 | 0.0 | 0.00 | 0.19 | 0.19 | 71 | 1010.0 |
| 20260905011605 | 80 | 24 | 0.0 | 0.0 | 0.00 | 0.19 | 0.19 | 70 | 1010.1 |
| 20260905011105 | 80 | 24 | 0.0 | 0.0 | 0.00 | 0.19 | 0.19 | 70 | 1010.2 |
| 20260905010605 | 80 | 24 | 0.0 | 0.0 | 0.00 | 0.19 | 0.19 | 70 | 1010.2 |
| 20260905010104 | 80 | 24 | 0.0 | 0.0 | 0.00 | 0.19 | 0.19 | 70 | 1010.2 |
| 20260905005605 | 80 | 24 | 0.0 | 0.0 | 0.00 | 0.19 | 0.19 | 69 | 1010.1 |
| 20260905005105 | 80 | 24 | 0.0 | 0.0 | 0.00 | 0.19 | 0.19 | 69 | 1010.0 |
| 20260905004606 | 80 | 24 | 0.0 | 0.0 | 0.00 | 0.19 | 0.19 | 69 | 1010.0 |
| 20260905004105 | 80 | 24 | 0.0 | 0.0 | 0.00 | 0.19 | 0.19 | 68 | 1009.9 |
| 20260905003605 | 80 | 24 | 0.0 | 0.0 | 0.00 | 0.19 | 0.19 | 68 | 1009.8 |
| 20260905003105 | 80 | 24 | 0.0 | 0.0 | 0.00 | 0.19 | 0.19 | 68 | 1009.8 |
| 20260905001604 | 81 | 24 | 0.0 | 0.0 | 0.00 | 0.19 | 0.19 | 68 | 1009.6 |
| 20260905001104 | 81 | 24 | 0.0 | 0.0 | 0.00 | 0.19 | 0.19 | 67 | 1009.6 |
| 20260905000605 | 81 | 23 | 0.0 | 0.0 | 0.00 | 0.19 | 0.19 | 67 | 1009.5 |
| 20260904235604 | 81 | 23 | 0.0 | 0.0 | 0.00 | 0.19 | 0.19 | 67 | 1009.6 |
| 20260904235104 | 81 | 58 | 0.0 | 0.0 | 0.00 | 0.19 | 0.19 | 66 | 1009.5 |
| 20260904234605 | 81 | 75 | 0.0 | 0.0 | 0.00 | 0.19 | 0.19 | 66 | 1009.6 |
| 20260904234106 | 82 | 18 | 0.0 | 2.0 | 0.00 | 0.19 | 0.19 | 66 | 1009.6 |
| 20260904233604 | 82 | 274 | 0.0 | 1.0 | 0.00 | 0.19 | 0.19 | 65 | 1009.7 |
| 20260904233104 | 82 | 266 | 0.0 | 1.0 | 0.00 | 0.19 | 0.19 | 65 | 1009.7 |
| 20260904232604 | 82 | 347 | 0.0 | 1.0 | 0.00 | 0.19 | 0.19 | 64 | 1009.6 |
| 20260904232104 | 83 | 0 | 0.0 | 3.0 | 0.00 | 0.19 | 0.19 | 64 | 1009.7 |
| 20260904231604 | 83 | 354 | 0.0 | 3.0 | 0.00 | 0.19 | 0.19 | 64 | 1009.7 |
| 20260904231105 | 83 | 247 | 0.0 | 2.0 | 0.00 | 0.19 | 0.19 | 63 | 1009.8 |
| 20260904230604 | 83 | 20 | 0.0 | 2.0 | 0.00 | 0.19 | 0.19 | 63 | 1009.8 |
| 20260904230104 | 83 | 271 | 0.0 | 1.0 | 0.00 | 0.19 | 0.19 | 62 | 1009.7 |
| 20260904225604 | 83 | 34 | 0.0 | 3.0 | 0.00 | 0.19 | 0.19 | 61 | 1009.8 |
| 20260904225104 | 83 | 10 | 0.0 | 3.0 | 0.00 | 0.19 | 0.19 | 61 | 1009.8 |
| 20260904224605 | 84 | 38 | 1.0 | 3.0 | 0.00 | 0.19 | 0.19 | 61 | 1009.9 |
| 20260904223604 | 84 | 231 | 1.0 | 5.0 | 0.00 | 0.19 | 0.19 | 60 | 1009.7 |
| 20260904223105 | 84 | 358 | 2.0 | 3.0 | 0.00 | 0.19 | 0.19 | 60 | 1009.7 |
| 20260904222605 | 84 | 139 | 1.0 | 3.0 | 0.00 | 0.19 | 0.19 | 60 | 1009.8 |
| 20260904222105 | 84 | 306 | 0.0 | 3.0 | 0.00 | 0.19 | 0.19 | 60 | 1009.7 |
| 20260904221104 | 85 | 314 | 0.0 | 9.0 | 0.00 | 0.19 | 0.19 | 59 | 1009.8 |
| 20260904220605 | 85 | 317 | 1.0 | 3.0 | 0.00 | 0.19 | 0.19 | 59 | 1009.8 |
| 20260904215604 | 85 | 312 | 1.0 | 3.0 | 0.00 | 0.19 | 0.19 | 58 | 1009.8 |
| 20260904215105 | 85 | 343 | 2.0 | 5.0 | 0.00 | 0.19 | 0.19 | 58 | 1009.9 |
| 20260904214104 | 86 | 342 | 0.0 | 2.0 | 0.00 | 0.19 | 0.19 | 58 | 1010.0 |
| 20260904213604 | 86 | 350 | 1.0 | 5.0 | 0.00 | 0.19 | 0.19 | 57 | 1010.0 |
| 20260904213105 | 86 | 18 | 1.0 | 2.0 | 0.00 | 0.19 | 0.19 | 57 | 1010.0 |
| 20260904212605 | 86 | 255 | 1.0 | 3.0 | 0.00 | 0.19 | 0.19 | 57 | 1010.0 |
| 20260904211604 | 87 | 357 | 2.0 | 5.0 | 0.00 | 0.19 | 0.19 | 56 | 1009.8 |
| 20260904211105 | 87 | 312 | 1.0 | 3.0 | 0.00 | 0.19 | 0.19 | 56 | 1009.7 |
| 20260904210604 | 88 | 86 | 1.0 | 3.0 | 0.00 | 0.19 | 0.19 | 55 | 1009.6 |
| 20260904210104 | 88 | 321 | 1.0 | 3.0 | 0.00 | 0.19 | 0.19 | 55 | 1009.5 |
| 20260904205104 | 88 | 334 | 2.0 | 3.0 | 0.00 | 0.19 | 0.19 | 56 | 1009.5 |
| 20260904204604 | 88 | 348 | 1.0 | 5.0 | 0.00 | 0.19 | 0.19 | 56 | 1009.7 |
| 20260904204105 | 87 | 347 | 2.0 | 3.0 | 0.00 | 0.19 | 0.19 | 56 | 1009.8 |
| 20260904203104 | 88 | 13 | 1.0 | 3.0 | 0.00 | 0.19 | 0.19 | 56 | 1009.9 |
| 20260904202604 | 88 | 257 | 1.0 | 2.0 | 0.00 | 0.19 | 0.19 | 56 | 1009.9 |
| 20260904202104 | 88 | 14 | 2.0 | 6.0 | 0.00 | 0.19 | 0.19 | 55 | 1010.0 |
| 20260904201605 | 88 | 320 | 1.0 | 3.0 | 0.00 | 0.19 | 0.19 | 56 | 1010.0 |
| 20260904201104 | 88 | 327 | 0.0 | 3.0 | 0.00 | 0.19 | 0.19 | 55 | 1010.1 |
| 20260904195605 | 89 | 19 | 1.0 | 3.0 | 0.00 | 0.19 | 0.19 | 55 | 1010.1 |
| 20260904195104 | 88 | 332 | 2.0 | 5.0 | 0.00 | 0.19 | 0.19 | 55 | 1010.2 |
| 20260904194105 | 88 | 5 | 2.0 | 3.0 | 0.00 | 0.19 | 0.19 | 53 | 1010.3 |
| 20260904193604 | 89 | 326 | 1.0 | 5.0 | 0.00 | 0.19 | 0.19 | 54 | 1010.4 |
| 20260904193104 | 89 | 346 | 2.0 | 5.0 | 0.00 | 0.19 | 0.19 | 53 | 1010.4 |
| 20260904192604 | 88 | 37 | 2.0 | 6.0 | 0.00 | 0.19 | 0.19 | 54 | 1010.5 |
| 20260904192104 | 89 | 5 | 2.0 | 5.0 | 0.00 | 0.19 | 0.19 | 55 | 1010.5 |
| 20260904191104 | 89 | 214 | 3.0 | 7.0 | 0.00 | 0.19 | 0.19 | 56 | 1010.7 |
| 20260904190605 | 88 | 341 | 3.0 | 7.0 | 0.00 | 0.19 | 0.19 | 55 | 1010.8 |
| 20260904190105 | 88 | 9 | 2.0 | 5.0 | 0.00 | 0.19 | 0.19 | 54 | 1010.9 |
| 20260904185605 | 88 | 10 | 1.0 | 3.0 | 0.00 | 0.19 | 0.19 | 55 | 1011.0 |
| 20260904184604 | 89 | 352 | 2.0 | 3.0 | 0.00 | 0.19 | 0.19 | 55 | 1011.0 |
| 20260904184105 | 88 | 107 | 1.0 | 3.0 | 0.00 | 0.19 | 0.19 | 57 | 1011.0 |
| 20260904183604 | 88 | 237 | 1.0 | 5.0 | 0.00 | 0.19 | 0.19 | 58 | 1011.0 |
| 20260904183105 | 88 | 0 | 1.0 | 3.0 | 0.00 | 0.19 | 0.19 | 56 | 1011.1 |
| 20260904182604 | 88 | 204 | 2.0 | 5.0 | 0.00 | 0.19 | 0.19 | 55 | 1011.2 |
| 20260904182104 | 88 | 344 | 3.0 | 6.0 | 0.00 | 0.19 | 0.19 | 55 | 1011.2 |
| 20260904181104 | 88 | 318 | 1.0 | 3.0 | 0.00 | 0.19 | 0.19 | 54 | 1011.1 |
| 20260904180604 | 89 | 350 | 2.0 | 5.0 | 0.00 | 0.19 | 0.19 | 53 | 1011.0 |
| 20260904180104 | 89 | 323 | 2.0 | 5.0 | 0.00 | 0.19 | 0.19 | 53 | 1011.0 |
| 20260904175604 | 89 | 17 | 1.0 | 3.0 | 0.00 | 0.19 | 0.19 | 54 | 1011.0 |
| 20260904175105 | 89 | 4 | 1.0 | 6.0 | 0.00 | 0.19 | 0.19 | 55 | 1011.1 |
| 20260904174604 | 89 | 265 | 1.0 | 3.0 | 0.00 | 0.19 | 0.19 | 56 | 1011.2 |
| 20260904173604 | 88 | 353 | 2.0 | 3.0 | 0.00 | 0.19 | 0.19 | 55 | 1011.2 |
| 20260904173104 | 88 | 350 | 1.0 | 6.0 | 0.00 | 0.19 | 0.19 | 55 | 1011.2 |
| 20260904172605 | 88 | 352 | 1.0 | 3.0 | 0.00 | 0.19 | 0.19 | 56 | 1011.2 |
| 20260904172104 | 88 | 343 | 2.0 | 3.0 | 0.00 | 0.19 | 0.19 | 57 | 1011.2 |
| 20260904171104 | 88 | 4 | 1.0 | 3.0 | 0.00 | 0.19 | 0.19 | 57 | 1011.2 |
| 20260904170604 | 88 | 43 | 2.0 | 8.0 | 0.00 | 0.19 | 0.19 | 58 | 1011.4 |
| 20260904165604 | 87 | 24 | 2.0 | 3.0 | 0.00 | 0.19 | 0.19 | 59 | 1011.3 |
| 20260904165104 | 87 | 46 | 1.0 | 6.0 | 0.00 | 0.19 | 0.19 | 58 | 1011.3 |
| 20260904164604 | 87 | 15 | 1.0 | 5.0 | 0.00 | 0.19 | 0.19 | 59 | 1011.3 |
| 20260904163605 | 87 | 338 | 1.0 | 3.0 | 0.00 | 0.19 | 0.19 | 60 | 1011.2 |
| 20260904163104 | 87 | 27 | 1.0 | 5.0 | 0.00 | 0.19 | 0.19 | 59 | 1011.2 |
| 20260904162604 | 87 | 356 | 1.0 | 3.0 | 0.00 | 0.19 | 0.19 | 60 | 1011.2 |
| 20260904162104 | 87 | 341 | 2.0 | 3.0 | 0.00 | 0.19 | 0.19 | 62 | 1011.2 |
| 20260904161604 | 87 | 5 | 2.0 | 6.0 | 0.00 | 0.19 | 0.19 | 60 | 1011.3 |
| 20260904161104 | 87 | 346 | 1.0 | 6.0 | 0.00 | 0.19 | 0.19 | 61 | 1011.4 |
| 20260904160604 | 87 | 342 | 2.0 | 6.0 | 0.00 | 0.19 | 0.19 | 60 | 1011.5 |
| 20260904160104 | 86 | 294 | 1.0 | 3.0 | 0.00 | 0.19 | 0.19 | 65 | 1011.6 |
| 20260904155604 | 86 | 17 | 1.0 | 5.0 | 0.00 | 0.19 | 0.19 | 66 | 1011.5 |
| 20260904155104 | 86 | 14 | 2.0 | 5.0 | 0.00 | 0.19 | 0.19 | 68 | 1011.6 |
| 20260904154604 | 86 | 20 | 1.0 | 3.0 | 0.00 | 0.19 | 0.19 | 68 | 1011.6 |
| 20260904154104 | 85 | 350 | 1.0 | 6.0 | 0.00 | 0.19 | 0.19 | 70 | 1011.7 |
| 20260904153604 | 85 | 3 | 2.0 | 6.0 | 0.00 | 0.19 | 0.19 | 69 | 1011.6 |
| 20260904153104 | 85 | 8 | 1.0 | 3.0 | 0.00 | 0.19 | 0.19 | 70 | 1011.5 |
| 20260904152604 | 85 | 289 | 1.0 | 6.0 | 0.00 | 0.19 | 0.19 | 70 | 1011.6 |
| 20260904152104 | 85 | 346 | 2.0 | 6.0 | 0.00 | 0.19 | 0.19 | 70 | 1011.6 |
| 20260904151604 | 85 | 308 | 1.0 | 8.0 | 0.00 | 0.19 | 0.19 | 71 | 1011.6 |
| 20260904151104 | 85 | 43 | 1.0 | 3.0 | 0.00 | 0.19 | 0.19 | 71 | 1011.7 |
| 20260904150604 | 85 | 38 | 1.0 | 5.0 | 0.00 | 0.19 | 0.19 | 71 | 1011.7 |
| 20260904150104 | 85 | 150 | 1.0 | 3.0 | 0.00 | 0.19 | 0.19 | 72 | 1011.7 |
| 20260904145105 | 85 | 336 | 1.0 | 3.0 | 0.00 | 0.19 | 0.19 | 72 | 1011.6 |
| 20260904144605 | 84 | 112 | 0.0 | 3.0 | 0.00 | 0.19 | 0.19 | 74 | 1011.6 |
| 20260904144104 | 84 | 39 | 3.0 | 5.0 | 0.00 | 0.19 | 0.19 | 72 | 1011.6 |
| 20260904143104 | 83 | 299 | 0.0 | 3.0 | 0.00 | 0.19 | 0.19 | 74 | 1011.6 |
| 20260904142104 | 83 | 297 | 0.0 | 3.0 | 0.00 | 0.19 | 0.19 | 76 | 1011.5 |
| 20260904141605 | 83 | 328 | 1.0 | 3.0 | 0.00 | 0.19 | 0.19 | 76 | 1011.5 |
| 20260904141104 | 82 | 321 | 2.0 | 3.0 | 0.00 | 0.19 | 0.19 | 76 | 1011.6 |
| 20260904140605 | 82 | 11 | 0.0 | 5.0 | 0.00 | 0.19 | 0.19 | 77 | 1011.4 |
| 20260904140105 | 82 | 339 | 1.0 | 3.0 | 0.00 | 0.19 | 0.19 | 76 | 1011.4 |
| 20260904135105 | 82 | 29 | 1.0 | 3.0 | 0.00 | 0.19 | 0.19 | 77 | 1011.4 |
| 20260904134604 | 81 | 37 | 1.0 | 6.0 | 0.00 | 0.19 | 0.19 | 77 | 1011.4 |
| 20260904134105 | 81 | 43 | 2.0 | 7.0 | 0.00 | 0.19 | 0.19 | 76 | 1011.4 |
| 20260904133604 | 81 | 356 | 1.0 | 3.0 | 0.00 | 0.19 | 0.19 | 79 | 1011.4 |
| 20260904133104 | 80 | 1 | 1.0 | 6.0 | 0.00 | 0.19 | 0.19 | 79 | 1011.4 |
| 20260904132606 | 80 | 1 | 2.0 | 5.0 | 0.00 | 0.19 | 0.19 | 79 | 1011.5 |
| 20260904132104 | 80 | 341 | 1.0 | 3.0 | 0.00 | 0.19 | 0.19 | 79 | 1011.5 |
| 20260904131604 | 80 | 318 | 2.0 | 3.0 | 0.00 | 0.19 | 0.19 | 81 | 1011.5 |
| 20260904131105 | 79 | 343 | 1.0 | 3.0 | 0.00 | 0.19 | 0.19 | 81 | 1011.5 |
| 20260904130604 | 79 | 333 | 1.0 | 6.0 | 0.00 | 0.19 | 0.19 | 81 | 1011.5 |
| 20260904130104 | 79 | 340 | 1.0 | 3.0 | 0.00 | 0.19 | 0.19 | 81 | 1011.6 |
| 20260904125605 | 79 | 335 | 1.0 | 6.0 | 0.00 | 0.19 | 0.19 | 82 | 1011.6 |
| 20260904124605 | 78 | 7 | 0.0 | 5.0 | 0.00 | 0.19 | 0.19 | 84 | 1011.6 |
| 20260904123605 | 78 | 346 | 1.0 | 6.0 | 0.00 | 0.19 | 0.19 | 84 | 1011.6 |
| 20260904123104 | 78 | 341 | 1.0 | 3.0 | 0.00 | 0.19 | 0.19 | 84 | 1011.6 |
| 20260904122604 | 78 | 334 | 1.0 | 3.0 | 0.00 | 0.19 | 0.19 | 85 | 1011.6 |
| 20260904122105 | 78 | 354 | 1.0 | 2.0 | 0.00 | 0.19 | 0.19 | 85 | 1011.7 |
| 20260904121605 | 77 | 346 | 0.0 | 2.0 | 0.00 | 0.19 | 0.19 | 86 | 1011.7 |
| 20260904121104 | 77 | 350 | 0.0 | 2.0 | 0.00 | 0.19 | 0.19 | 86 | 1011.6 |
| 20260904120105 | 76 | 40 | 0.0 | 1.0 | 0.00 | 0.19 | 0.19 | 88 | 1011.4 |
| 20260904115605 | 75 | 355 | 0.0 | 2.0 | 0.00 | 0.19 | 0.19 | 89 | 1011.3 |
| 20260904115104 | 75 | 288 | 0.0 | 1.0 | 0.00 | 0.19 | 0.19 | 90 | 1011.4 |
| 20260904114604 | 74 | 349 | 0.0 | 2.0 | 0.00 | 0.19 | 0.19 | 91 | 1011.3 |
| 20260904114104 | 74 | 237 | 1.0 | 3.0 | 0.00 | 0.19 | 0.19 | 93 | 1011.3 |
| 20260904113604 | 73 | 0 | 0.0 | 1.0 | 0.00 | 0.19 | 0.19 | 94 | 1011.3 |
| 20260904112104 | 72 | 284 | 0.0 | 1.0 | 0.00 | 0.19 | 0.19 | 94 | 1011.1 |
| 20260904111605 | 72 | 218 | 0.0 | 1.0 | 0.00 | 0.19 | 0.19 | 93 | 1011.1 |
| 20260904111104 | 72 | 333 | 0.0 | 1.0 | 0.00 | 0.19 | 0.19 | 93 | 1011.1 |
| 20260904110604 | 72 | 8 | 0.0 | 2.0 | 0.00 | 0.19 | 0.19 | 93 | 1010.9 |
| 20260904110104 | 72 | 32 | 0.0 | 1.0 | 0.00 | 0.19 | 0.19 | 94 | 1010.8 |
| 20260904105604 | 72 | 2 | 0.0 | 1.0 | 0.00 | 0.19 | 0.19 | 94 | 1010.8 |
| 20260904104604 | 72 | 23 | 0.0 | 2.0 | 0.00 | 0.19 | 0.19 | 94 | 1010.7 |
| 20260904104104 | 72 | 5 | 0.0 | 1.0 | 0.00 | 0.19 | 0.19 | 94 | 1010.7 |
| 20260904103605 | 73 | 342 | 0.0 | 1.0 | 0.00 | 0.19 | 0.19 | 94 | 1010.7 |
| 20260904103104 | 73 | 281 | 1.0 | 3.0 | 0.00 | 0.19 | 0.19 | 94 | 1010.6 |
| 20260904102605 | 73 | 9 | 0.0 | 2.0 | 0.00 | 0.19 | 0.19 | 94 | 1010.5 |
| 20260904102104 | 73 | 335 | 1.0 | 2.0 | 0.00 | 0.20 | 0.19 | 95 | 1010.6 |
| 20260904101605 | 73 | 342 | 0.0 | 1.0 | 0.00 | 0.20 | 0.19 | 95 | 1010.6 |
| 20260904101105 | 73 | 294 | 0.0 | 1.0 | 0.00 | 0.20 | 0.19 | 95 | 1010.5 |
| 20260904100104 | 74 | 1 | 0.0 | 0.0 | 0.00 | 0.20 | 0.19 | 95 | 1010.6 |
| 20260904095104 | 74 | 355 | 0.0 | 2.0 | 0.00 | 0.22 | 0.19 | 95 | 1010.5 |
| 20260904094604 | 74 | 346 | 1.0 | 2.0 | 0.00 | 0.22 | 0.19 | 95 | 1010.5 |
| 20260904094104 | 74 | 330 | 0.0 | 1.0 | 0.00 | 0.22 | 0.19 | 95 | 1010.6 |
| 20260904093104 | 74 | 138 | 1.0 | 2.0 | 0.00 | 0.24 | 0.19 | 95 | 1010.7 |
| 20260904092605 | 74 | 37 | 0.0 | 1.0 | 0.00 | 0.25 | 0.19 | 95 | 1010.7 |
| 20260904092104 | 74 | 286 | 1.0 | 3.0 | 0.00 | 0.26 | 0.19 | 95 | 1010.6 |
| 20260904091605 | 74 | 300 | 0.0 | 3.0 | 0.00 | 0.27 | 0.19 | 95 | 1010.7 |
| 20260904091105 | 74 | 337 | 2.0 | 5.0 | 0.00 | 0.27 | 0.19 | 95 | 1010.7 |
| 20260904090604 | 74 | 231 | 0.0 | 3.0 | 0.00 | 0.29 | 0.19 | 95 | 1010.8 |
| 20260904085105 | 74 | 242 | 1.0 | 5.0 | 0.00 | 0.47 | 0.19 | 96 | 1010.8 |
| 20260904084604 | 74 | 293 | 1.0 | 5.0 | 0.00 | 0.48 | 0.19 | 96 | 1010.8 |
| 20260904083604 | 74 | 34 | 0.0 | 2.0 | 0.00 | 0.57 | 0.19 | 96 | 1010.8 |
| 20260904083105 | 74 | 192 | 1.0 | 6.0 | 0.00 | 0.58 | 0.19 | 96 | 1010.7 |
| 20260904082105 | 74 | 258 | 1.0 | 3.0 | 0.00 | 0.59 | 0.19 | 96 | 1010.9 |
| 20260904081604 | 74 | 278 | 0.0 | 2.0 | 0.00 | 0.63 | 0.19 | 95 | 1011.0 |
| 20260904081104 | 74 | 249 | 0.0 | 2.0 | 0.00 | 0.63 | 0.19 | 95 | 1010.9 |
| 20260904080604 | 74 | 241 | 0.0 | 2.0 | 0.00 | 0.63 | 0.19 | 95 | 1010.9 |
| 20260904080105 | 74 | 34 | 0.0 | 0.0 | 0.00 | 0.63 | 0.19 | 95 | 1010.9 |
| 20260904075604 | 74 | 329 | 0.0 | 1.0 | 0.00 | 0.64 | 0.19 | 95 | 1010.9 |
| 20260904074605 | 74 | 317 | 0.0 | 0.0 | 0.00 | 0.70 | 0.19 | 95 | 1011.0 |
| 20260904074104 | 74 | 326 | 0.0 | 0.0 | 0.00 | 0.70 | 0.19 | 95 | 1011.0 |
| 20260904073605 | 74 | 326 | 0.0 | 1.0 | 0.00 | 0.70 | 0.19 | 95 | 1010.9 |
| 20260904073104 | 74 | 326 | 0.0 | 1.0 | 0.00 | 0.70 | 0.19 | 95 | 1010.8 |
| 20260904072605 | 74 | 307 | 0.0 | 0.0 | 0.00 | 0.70 | 0.19 | 95 | 1010.6 |
| 20260904071604 | 74 | 190 | 0.0 | 0.0 | 0.00 | 0.70 | 0.19 | 95 | 1010.6 |
| 20260904071104 | 74 | 149 | 0.0 | 0.0 | 0.00 | 0.70 | 0.19 | 95 | 1010.5 |
| 20260904070604 | 74 | 149 | 0.0 | 0.0 | 0.00 | 0.70 | 0.19 | 95 | 1010.5 |
| 20260904070104 | 74 | 149 | 0.0 | 0.0 | 0.00 | 0.70 | 0.19 | 95 | 1010.3 |
| 20260904065604 | 74 | 149 | 0.0 | 0.0 | 0.00 | 0.70 | 0.19 | 95 | 1010.3 |
| 20260904065105 | 74 | 149 | 0.0 | 1.0 | 0.00 | 0.70 | 0.19 | 95 | 1010.3 |
| 20260904064605 | 74 | 149 | 0.0 | 0.0 | 0.00 | 0.71 | 0.19 | 95 | 1010.3 |
| 20260904063605 | 74 | 151 | 0.0 | 0.0 | 0.00 | 0.73 | 0.19 | 95 | 1010.2 |